Time,TemperatureF,DewpointF,PressureIn,WindDirection,WindDirectionDegrees,WindSpeedMPH,WindSpeedGustMPH,Humidity,HourlyPrecipIn,Conditions,Clouds,dailyrainin,SoftwareType,DateUTC
2013-05-13 00:00:00,53.6,27.3,30.26,NW,319,0.0,0.0,36,0.00,CLR,,0.00,WeatherDisplay:10.37,2013-05-13 07:00:00,
2013-05-13 00:05:00,53.6,27.3,30.26,NW,319,0.0,0.0,36,0.00,CLR,,0.00,WeatherDisplay:10.37,2013-05-13 07:05:00,
2013-05-13 00:10:00,53.4,27.1,30.26,NW,319,0.0,0.0,36,0.00,CLR,,0.00,WeatherDisplay:10.37,2013-05-13 07:10:00,
2013-05-13 00:20:00,53.1,26.8,30.26,NW,319,0.0,0.0,36,0.00,CLR,,0.00,WeatherDisplay:10.37,2013-05-13 07:20:00,
2013-05-13 00:25:00,52.7,27.1,30.26,NW,319,0.0,0.0,37,0.00,CLR,,0.00,WeatherDisplay:10.37,2013-05-13 07:25:00,
2013-05-13 00:30:00,52.3,26.8,30.26,NW,319,0.0,0.0,37,0.00,CLR,,0.00,WeatherDisplay:10.37,2013-05-13 07:30:00,
2013-05-13 00:40:00,51.6,26.8,30.26,NW,319,0.0,0.0,38,0.00,CLR,,0.00,WeatherDisplay:10.37,2013-05-13 07:40:00,
2013-05-13 00:50:00,51.3,27.1,30.26,NW,319,0.0,0.0,39,0.00,CLR,,0.00,WeatherDisplay:10.37,2013-05-13 07:50:00,
2013-05-13 01:00:00,51.4,27.2,30.26,NW,319,0.0,0.0,39,0.00,CLR,,0.00,WeatherDisplay:10.37,2013-05-13 08:00:00,
2013-05-13 01:05:00,51.4,27.3,30.26,NW,319,0.0,0.0,39,0.00,CLR,,0.00,WeatherDisplay:10.37,2013-05-13 08:05:00,
2013-05-13 01:10:00,51.3,27.1,30.26,NW,319,0.0,0.0,39,0.00,CLR,,0.00,WeatherDisplay:10.37,2013-05-13 08:10:00,
2013-05-13 01:15:00,51.3,27.7,30.26,NW,319,0.0,0.0,40,0.00,CLR,,0.00,WeatherDisplay:10.37,2013-05-13 08:15:00,
2013-05-13 01:20:00,50.9,28.0,30.26,NW,319,0.0,0.0,41,0.00,CLR,,0.00,WeatherDisplay:10.37,2013-05-13 08:20:00,
2013-05-13 01:30:00,50.7,27.8,30.26,NW,319,0.0,0.0,41,0.00,CLR,,0.00,WeatherDisplay:10.37,2013-05-13 08:30:00,
2013-05-13 01:35:00,50.5,27.7,30.26,NW,319,0.0,0.0,41,0.00,CLR,,0.00,WeatherDisplay:10.37,2013-05-13 08:35:00,
2013-05-13 01:40:00,50.5,27.7,30.26,NW,319,0.0,0.0,41,0.00,CLR,,0.00,WeatherDisplay:10.37,2013-05-13 08:40:00,
2013-05-13 01:50:00,50.5,27.7,30.26,NW,319,0.0,0.0,41,0.00,CLR,,0.00,WeatherDisplay:10.37,2013-05-13 08:50:00,
2013-05-13 02:00:00,50.4,27.5,30.26,NW,319,0.0,0.0,41,0.00,CLR,,0.00,WeatherDisplay:10.37,2013-05-13 09:00:00,
2013-05-13 02:05:00,50.2,27.4,30.26,NW,319,0.0,0.0,41,0.00,CLR,,0.00,WeatherDisplay:10.37,2013-05-13 09:05:00,
2013-05-13 02:10:00,50.0,27.8,30.26,NW,319,0.0,0.0,42,0.00,CLR,,0.00,WeatherDisplay:10.37,2013-05-13 09:10:00,
2013-05-13 02:20:00,49.8,28.8,30.26,NW,319,0.0,0.0,44,0.00,CLR,,0.00,WeatherDisplay:10.37,2013-05-13 09:20:00,
2013-05-13 02:25:00,49.8,28.2,30.26,NW,319,0.0,0.0,43,0.00,CLR,,0.00,WeatherDisplay:10.37,2013-05-13 09:25:00,
2013-05-13 02:30:00,50.0,28.4,30.24,NW,319,0.0,0.0,43,0.00,CLR,,0.00,WeatherDisplay:10.37,2013-05-13 09:30:00,
2013-05-13 02:40:00,50.0,27.2,30.24,NW,319,0.0,0.0,41,0.00,CLR,,0.00,WeatherDisplay:10.37,2013-05-13 09:40:00,
2013-05-13 02:45:00,50.2,27.4,30.24,NW,319,0.0,0.0,41,0.00,CLR,,0.00,WeatherDisplay:10.37,2013-05-13 09:45:00,
2013-05-13 02:50:00,50.2,26.8,30.24,NW,319,0.0,0.0,40,0.00,CLR,,0.00,WeatherDisplay:10.37,2013-05-13 09:50:00,
2013-05-13 03:00:00,50.3,26.8,30.24,NW,319,0.0,0.0,40,0.00,CLR,,0.00,WeatherDisplay:10.37,2013-05-13 10:00:00,
2013-05-13 03:05:00,50.2,26.8,30.24,NW,319,0.0,0.0,40,0.00,CLR,,0.00,WeatherDisplay:10.37,2013-05-13 10:05:00,
2013-05-13 03:10:00,49.7,26.3,30.24,NW,319,0.0,0.0,40,0.00,CLR,,0.00,WeatherDisplay:10.37,2013-05-13 10:10:00,
2013-05-13 03:15:00,49.5,26.1,30.24,NW,319,0.0,0.0,40,0.00,CLR,,0.00,WeatherDisplay:10.37,2013-05-13 10:15:00,
2013-05-13 03:20:00,49.2,26.5,30.24,NW,319,0.0,0.0,41,0.00,CLR,,0.00,WeatherDisplay:10.37,2013-05-13 10:20:00,
2013-05-13 03:30:00,48.8,25.5,30.24,NW,319,0.0,0.0,40,0.00,CLR,,0.00,WeatherDisplay:10.37,2013-05-13 10:30:00,
2013-05-13 03:40:00,48.7,25.5,30.24,NW,319,0.0,0.0,40,0.00,CLR,,0.00,WeatherDisplay:10.37,2013-05-13 10:40:00,
2013-05-13 03:50:00,48.9,25.6,30.24,NW,319,0.0,0.0,40,0.00,CLR,,0.00,WeatherDisplay:10.37,2013-05-13 10:50:00,
2013-05-13 04:00:00,49.3,25.3,30.24,NW,319,0.0,0.0,39,0.00,CLR,,0.00,WeatherDisplay:10.37,2013-05-13 11:00:00,
2013-05-13 04:05:00,49.3,25.3,30.24,NW,319,0.0,0.0,39,0.00,CLR,,0.00,WeatherDisplay:10.37,2013-05-13 11:05:00,
2013-05-13 04:10:00,49.0,24.4,30.24,NW,319,0.0,0.0,38,0.00,CLR,,0.00,WeatherDisplay:10.37,2013-05-13 11:10:00,
2013-05-13 04:15:00,48.7,24.2,30.24,NW,319,0.0,0.0,38,0.00,CLR,,0.00,WeatherDisplay:10.37,2013-05-13 11:15:00,
2013-05-13 04:20:00,48.6,24.1,30.24,NW,319,0.0,0.0,38,0.00,CLR,,0.00,WeatherDisplay:10.37,2013-05-13 11:20:00,
2013-05-13 04:30:00,48.4,23.9,30.24,NW,319,0.0,0.0,38,0.00,CLR,,0.00,WeatherDisplay:10.37,2013-05-13 11:30:00,
2013-05-13 04:40:00,48.2,23.7,30.24,NW,319,0.0,0.0,38,0.00,CLR,,0.00,WeatherDisplay:10.37,2013-05-13 11:40:00,
2013-05-13 04:45:00,48.2,23.7,30.24,NW,319,0.0,0.0,38,0.00,CLR,,0.00,WeatherDisplay:10.37,2013-05-13 11:45:00,
2013-05-13 04:50:00,48.0,23.6,30.24,NW,319,0.0,0.0,38,0.00,CLR,,0.00,WeatherDisplay:10.37,2013-05-13 11:50:00,
2013-05-13 05:00:00,48.0,23.6,30.24,NW,319,0.0,0.0,38,0.00,CLR,,0.00,WeatherDisplay:10.37,2013-05-13 12:00:00,
2013-05-13 05:05:00,48.0,23.6,30.24,NW,319,0.0,0.0,38,0.00,CLR,,0.00,WeatherDisplay:10.37,2013-05-13 12:05:00,
2013-05-13 05:10:00,48.0,23.6,30.24,NW,319,0.0,0.0,38,0.00,CLR,,0.00,WeatherDisplay:10.37,2013-05-13 12:10:00,
2013-05-13 05:15:00,48.2,23.7,30.24,NW,319,0.0,0.0,38,0.00,CLR,,0.00,WeatherDisplay:10.37,2013-05-13 12:15:00,
2013-05-13 05:20:00,48.2,23.7,30.24,NW,319,0.0,0.0,38,0.00,CLR,,0.00,WeatherDisplay:10.37,2013-05-13 12:20:00,
2013-05-13 05:25:00,48.4,23.9,30.24,NW,319,0.0,0.0,38,0.00,CLR,,0.00,WeatherDisplay:10.37,2013-05-13 12:25:00,
2013-05-13 05:30:00,48.4,23.9,30.24,NW,319,0.0,0.0,38,0.00,CLR,,0.00,WeatherDisplay:10.37,2013-05-13 12:30:00,
2013-05-13 05:40:00,48.4,23.9,30.24,NW,319,0.0,0.0,38,0.00,CLR,,0.00,WeatherDisplay:10.37,2013-05-13 12:40:00,
2013-05-13 05:50:00,48.6,23.4,30.24,NW,319,0.0,0.0,37,0.00,CLR,,0.00,WeatherDisplay:10.37,2013-05-13 12:50:00,
2013-05-13 05:55:00,48.6,23.4,30.24,NW,319,0.0,0.0,37,0.00,CLR,,0.00,WeatherDisplay:10.37,2013-05-13 12:55:00,
2013-05-13 06:00:00,48.4,23.3,30.24,NW,319,0.0,0.0,37,0.00,CLR,,0.00,WeatherDisplay:10.37,2013-05-13 13:00:00,
2013-05-13 06:05:00,48.7,23.6,30.24,NW,319,0.0,0.0,37,0.00,CLR,,0.00,WeatherDisplay:10.37,2013-05-13 13:05:00,
2013-05-13 06:10:00,48.6,24.1,30.24,NW,319,0.0,0.0,38,0.00,CLR,,0.00,WeatherDisplay:10.37,2013-05-13 13:10:00,
2013-05-13 06:15:00,48.4,23.3,30.26,NW,319,0.0,0.0,37,0.00,CLR,,0.00,WeatherDisplay:10.37,2013-05-13 13:15:00,
2013-05-13 06:20:00,48.1,23.6,30.26,NW,319,0.0,0.0,38,0.00,CLR,,0.00,WeatherDisplay:10.37,2013-05-13 13:20:00,
2013-05-13 06:25:00,48.0,23.6,30.26,NW,319,0.0,0.0,38,0.00,CLR,,0.00,WeatherDisplay:10.37,2013-05-13 13:25:00,
2013-05-13 06:30:00,48.2,23.2,30.26,NW,319,0.0,0.0,37,0.00,CLR,,0.00,WeatherDisplay:10.37,2013-05-13 13:30:00,
2013-05-13 06:40:00,49.0,23.8,30.26,NW,319,0.0,0.0,37,0.00,CLR,,0.00,WeatherDisplay:10.37,2013-05-13 13:40:00,
2013-05-13 06:50:00,49.6,25.0,30.26,NW,319,0.0,0.0,38,0.00,CLR,,0.00,WeatherDisplay:10.37,2013-05-13 13:50:00,
2013-05-13 07:00:00,50.7,25.3,30.26,NW,319,0.0,0.0,37,0.00,CLR,,0.00,WeatherDisplay:10.37,2013-05-13 14:00:00,
2013-05-13 07:05:00,51.1,26.3,30.26,NW,319,0.0,0.0,38,0.00,CLR,,0.00,WeatherDisplay:10.37,2013-05-13 14:05:00,
2013-05-13 07:10:00,51.6,26.8,30.26,NW,319,0.0,0.0,38,0.00,CLR,,0.00,WeatherDisplay:10.37,2013-05-13 14:10:00,
2013-05-13 07:20:00,52.4,27.5,30.26,NW,319,0.0,0.0,38,0.00,CLR,,0.00,WeatherDisplay:10.37,2013-05-13 14:20:00,
2013-05-13 07:30:00,53.4,28.4,30.26,NW,319,0.0,0.0,38,0.00,CLR,,0.00,WeatherDisplay:10.37,2013-05-13 14:30:00,
2013-05-13 07:40:00,54.3,29.2,30.26,NW,319,0.0,0.0,38,0.00,CLR,,0.00,WeatherDisplay:10.37,2013-05-13 14:40:00,
2013-05-13 07:50:00,56.2,31.6,30.26,NW,319,0.0,0.0,39,0.00,CLR,,0.00,WeatherDisplay:10.37,2013-05-13 14:50:00,
2013-05-13 07:55:00,57.0,32.3,30.26,NW,319,0.0,0.0,39,0.00,CLR,,0.00,WeatherDisplay:10.37,2013-05-13 14:55:00,
2013-05-13 08:05:00,58.9,33.3,30.26,NW,319,0.0,0.0,38,0.00,CLR,,0.00,WeatherDisplay:10.37,2013-05-13 15:05:00,
2013-05-13 08:10:00,59.8,32.7,30.26,NW,319,0.0,0.0,36,0.00,CLR,,0.00,WeatherDisplay:10.37,2013-05-13 15:10:00,
2013-05-13 08:15:00,60.9,33.7,30.26,NW,319,0.0,0.0,36,0.00,CLR,,0.00,WeatherDisplay:10.37,2013-05-13 15:15:00,
2013-05-13 08:20:00,61.9,34.6,30.26,NW,319,0.0,0.0,36,0.00,CLR,,0.00,WeatherDisplay:10.37,2013-05-13 15:20:00,
2013-05-13 08:30:00,64.1,35.9,30.26,NW,318,0.0,0.0,35,0.00,CLR,,0.00,WeatherDisplay:10.37,2013-05-13 15:30:00,
2013-05-13 08:40:00,66.1,37.6,30.26,SW,228,0.0,0.0,35,0.00,CLR,,0.00,WeatherDisplay:10.37,2013-05-13 15:40:00,
2013-05-13 08:50:00,68.0,37.1,30.26,SW,226,0.0,0.0,32,0.00,CLR,,0.00,WeatherDisplay:10.37,2013-05-13 15:50:00,
2013-05-13 09:00:00,69.9,33.4,30.26,SSW,202,0.0,0.0,26,0.00,CLR,,0.00,WeatherDisplay:10.37,2013-05-13 16:00:00,
2013-05-13 09:05:00,71.1,31.4,30.26,SSE,162,0.0,0.0,23,0.00,CLR,,0.00,WeatherDisplay:10.37,2013-05-13 16:05:00,
2013-05-13 09:10:00,72.0,31.1,30.26,SE,134,0.0,0.0,22,0.00,CLR,,0.00,WeatherDisplay:10.37,2013-05-13 16:10:00,
2013-05-13 09:20:00,74.1,31.6,30.26,South,190,0.0,0.0,21,0.00,CLR,,0.00,WeatherDisplay:10.37,2013-05-13 16:20:00,
2013-05-13 09:25:00,74.8,32.3,30.26,South,188,0.0,3.0,21,0.00,CLR,,0.00,WeatherDisplay:10.37,2013-05-13 16:25:00,
2013-05-13 09:30:00,75.2,31.3,30.26,SSW,205,0.0,4.0,20,0.00,CLR,,0.00,WeatherDisplay:10.37,2013-05-13 16:30:00,
2013-05-13 09:40:00,75.8,31.8,30.26,SSW,202,0.0,6.0,20,0.00,CLR,,0.00,WeatherDisplay:10.37,2013-05-13 16:40:00,
2013-05-13 09:45:00,76.5,32.4,30.26,South,171,1.0,3.0,20,0.00,CLR,,0.00,WeatherDisplay:10.37,2013-05-13 16:45:00,
2013-05-13 09:50:00,77.2,33.0,30.26,SW,219,3.0,6.0,20,0.00,CLR,,0.00,WeatherDisplay:10.37,2013-05-13 16:50:00,
2013-05-13 10:00:00,77.1,30.3,30.26,SW,231,5.0,9.0,18,0.00,CLR,,0.00,WeatherDisplay:10.37,2013-05-13 17:00:00,
2013-05-13 10:05:00,76.6,29.9,30.26,SW,224,3.0,10.0,18,0.00,CLR,,0.00,WeatherDisplay:10.37,2013-05-13 17:05:00,
2013-05-13 10:10:00,76.1,29.5,30.26,SW,224,3.0,10.0,18,0.00,CLR,,0.00,WeatherDisplay:10.37,2013-05-13 17:10:00,
2013-05-13 10:20:00,76.5,29.8,30.26,SW,234,3.0,6.0,18,0.00,CLR,,0.00,WeatherDisplay:10.37,2013-05-13 17:20:00,
2013-05-13 10:25:00,77.0,30.2,30.26,SW,219,1.0,6.0,18,0.00,CLR,,0.00,WeatherDisplay:10.37,2013-05-13 17:25:00,
2013-05-13 10:30:00,77.0,30.2,30.26,SW,229,6.0,12.0,18,0.00,CLR,,0.00,WeatherDisplay:10.37,2013-05-13 17:30:00,
2013-05-13 10:40:00,77.0,30.2,30.26,WSW,252,5.0,6.0,18,0.00,CLR,,0.00,WeatherDisplay:10.37,2013-05-13 17:40:00,
2013-05-13 10:50:00,77.8,30.9,30.26,WSW,240,0.0,7.0,18,0.00,CLR,,0.00,WeatherDisplay:10.37,2013-05-13 17:50:00,
2013-05-13 10:55:00,78.1,31.1,30.26,WSW,243,6.0,8.0,18,0.00,CLR,,0.00,WeatherDisplay:10.37,2013-05-13 17:55:00,
2013-05-13 11:00:00,78.1,31.1,30.26,SSW,210,3.0,8.0,18,0.00,CLR,,0.00,WeatherDisplay:10.37,2013-05-13 18:00:00,
2013-05-13 11:05:00,78.4,31.4,30.26,SW,216,3.0,8.0,18,0.00,CLR,,0.00,WeatherDisplay:10.37,2013-05-13 18:05:00,
2013-05-13 11:10:00,78.6,31.5,30.26,SW,214,5.0,10.0,18,0.00,CLR,,0.00,WeatherDisplay:10.37,2013-05-13 18:10:00,
2013-05-13 11:15:00,78.4,31.3,30.26,SW,226,5.0,8.0,18,0.00,CLR,,0.00,WeatherDisplay:10.37,2013-05-13 18:15:00,
2013-05-13 11:20:00,78.3,31.3,30.26,SW,223,5.0,12.0,18,0.00,CLR,,0.00,WeatherDisplay:10.37,2013-05-13 18:20:00,
2013-05-13 11:25:00,78.1,31.1,30.26,WSW,244,2.0,12.0,18,0.00,CLR,,0.00,WeatherDisplay:10.37,2013-05-13 18:25:00,
2013-05-13 11:30:00,78.4,31.4,30.26,WSW,253,3.0,4.0,18,0.00,CLR,,0.00,WeatherDisplay:10.37,2013-05-13 18:30:00,
2013-05-13 11:40:00,79.0,30.4,30.26,SW,234,6.0,10.0,17,0.00,CLR,,0.00,WeatherDisplay:10.37,2013-05-13 18:40:00,
2013-05-13 11:50:00,79.2,30.6,30.26,SW,221,3.0,9.0,17,0.00,CLR,,0.00,WeatherDisplay:10.37,2013-05-13 18:50:00,
2013-05-13 12:00:00,79.7,31.0,30.26,SW,234,6.0,9.0,17,0.00,CLR,,0.00,WeatherDisplay:10.37,2013-05-13 19:00:00,
2013-05-13 12:05:00,79.9,31.2,30.26,SW,224,3.0,6.0,17,0.00,CLR,,0.00,WeatherDisplay:10.37,2013-05-13 19:05:00,
2013-05-13 12:10:00,79.9,31.2,30.26,SSW,197,3.0,6.0,17,0.00,CLR,,0.00,WeatherDisplay:10.37,2013-05-13 19:10:00,
2013-05-13 12:20:00,80.1,31.3,30.26,SW,214,3.0,9.0,17,0.00,CLR,,0.00,WeatherDisplay:10.37,2013-05-13 19:20:00,
2013-05-13 12:30:00,80.1,31.3,30.26,SW,235,3.0,12.0,17,0.00,CLR,,0.00,WeatherDisplay:10.37,2013-05-13 19:30:00,
2013-05-13 12:35:00,79.4,30.7,30.26,SW,228,3.0,10.0,17,0.00,CLR,,0.00,WeatherDisplay:10.37,2013-05-13 19:35:00,
2013-05-13 12:40:00,79.7,31.0,30.26,SW,225,5.0,12.0,17,0.00,CLR,,0.00,WeatherDisplay:10.37,2013-05-13 19:40:00,
2013-05-13 12:45:00,80.5,31.6,30.26,SW,235,3.0,10.0,17,0.00,CLR,,0.00,WeatherDisplay:10.37,2013-05-13 19:45:00,
2013-05-13 12:50:00,80.3,31.5,30.26,SW,231,6.0,8.0,17,0.00,CLR,,0.00,WeatherDisplay:10.37,2013-05-13 19:50:00,
2013-05-13 13:00:00,79.7,31.0,30.26,SW,217,5.0,10.0,17,0.00,CLR,,0.00,WeatherDisplay:10.37,2013-05-13 20:00:00,
2013-05-13 13:05:00,80.1,31.3,30.26,SW,223,5.0,10.0,17,0.00,CLR,,0.00,WeatherDisplay:10.37,2013-05-13 20:05:00,
2013-05-13 13:10:00,80.7,31.8,30.26,SSW,211,3.0,10.0,17,0.00,CLR,,0.00,WeatherDisplay:10.37,2013-05-13 20:10:00,
2013-05-13 13:20:00,79.5,30.8,30.26,WSW,247,6.0,8.0,17,0.00,CLR,,0.00,WeatherDisplay:10.37,2013-05-13 20:20:00,
2013-05-13 13:25:00,78.3,31.3,30.26,West,266,5.0,8.0,18,0.00,CLR,,0.00,WeatherDisplay:10.37,2013-05-13 20:25:00,
2013-05-13 13:30:00,78.1,31.1,30.26,West,268,5.0,8.0,18,0.00,CLR,,0.00,WeatherDisplay:10.37,2013-05-13 20:30:00,
2013-05-13 13:40:00,77.1,30.3,30.26,WSW,252,5.0,8.0,18,0.00,CLR,,0.00,WeatherDisplay:10.37,2013-05-13 20:40:00,
2013-05-13 13:50:00,79.3,32.1,30.26,WNW,282,3.0,8.0,18,0.00,CLR,,0.00,WeatherDisplay:10.37,2013-05-13 20:50:00,
2013-05-13 14:00:00,80.5,31.6,30.24,West,278,3.0,6.0,17,0.00,CLR,,0.00,WeatherDisplay:10.37,2013-05-13 21:00:00,
2013-05-13 14:05:00,80.8,31.9,30.24,SW,217,3.0,9.0,17,0.00,CLR,,0.00,WeatherDisplay:10.37,2013-05-13 21:05:00,
2013-05-13 14:10:00,79.9,31.1,30.24,SSW,199,3.0,9.0,17,0.00,CLR,,0.00,WeatherDisplay:10.37,2013-05-13 21:10:00,
2013-05-13 14:15:00,78.4,31.4,30.24,SSW,206,3.0,6.0,18,0.00,CLR,,0.00,WeatherDisplay:10.37,2013-05-13 21:15:00,
2013-05-13 14:20:00,77.4,30.5,30.24,SW,229,2.0,5.0,18,0.00,CLR,,0.00,WeatherDisplay:10.37,2013-05-13 21:20:00,
2013-05-13 14:30:00,76.5,29.8,30.24,WSW,242,5.0,8.0,18,0.00,CLR,,0.00,WeatherDisplay:10.37,2013-05-13 21:30:00,
2013-05-13 14:40:00,76.9,31.5,30.24,West,281,0.0,4.0,19,0.00,CLR,,0.00,WeatherDisplay:10.37,2013-05-13 21:40:00,
2013-05-13 14:50:00,79.7,31.0,30.24,SSW,200,5.0,9.0,17,0.00,CLR,,0.00,WeatherDisplay:10.37,2013-05-13 21:50:00,
2013-05-13 15:00:00,79.1,30.5,30.24,WSW,253,5.0,6.0,17,0.00,CLR,,0.00,WeatherDisplay:10.37,2013-05-13 22:00:00,
2013-05-13 15:05:00,78.4,31.3,30.24,WSW,239,6.0,8.0,18,0.00,CLR,,0.00,WeatherDisplay:10.37,2013-05-13 22:05:00,
2013-05-13 15:10:00,77.4,30.5,30.24,SW,221,1.0,5.0,18,0.00,CLR,,0.00,WeatherDisplay:10.37,2013-05-13 22:10:00,
2013-05-13 15:20:00,75.2,28.8,30.24,SW,223,0.0,2.0,18,0.00,CLR,,0.00,WeatherDisplay:10.37,2013-05-13 22:20:00,
2013-05-13 15:30:00,74.1,27.9,30.24,WNW,286,1.0,4.0,18,0.00,CLR,,0.00,WeatherDisplay:10.37,2013-05-13 22:30:00,
2013-05-13 15:35:00,75.2,31.3,30.24,WNW,294,3.0,6.0,20,0.00,CLR,,0.00,WeatherDisplay:10.37,2013-05-13 22:35:00,
2013-05-13 15:40:00,76.3,29.6,30.24,WNW,286,6.0,11.0,18,0.00,CLR,,0.00,WeatherDisplay:10.37,2013-05-13 22:40:00,
2013-05-13 15:50:00,75.9,29.3,30.24,SW,236,3.0,6.0,18,0.00,CLR,,0.00,WeatherDisplay:10.37,2013-05-13 22:50:00,
2013-05-13 16:00:00,76.7,32.6,30.21,West,268,2.0,4.0,20,0.00,CLR,,0.00,WeatherDisplay:10.37,2013-05-13 23:00:00,
2013-05-13 16:05:00,77.7,33.4,30.21,WSW,249,6.0,8.0,20,0.00,CLR,,0.00,WeatherDisplay:10.37,2013-05-13 23:05:00,
2013-05-13 16:10:00,77.4,33.1,30.21,WSW,238,5.0,11.0,20,0.00,CLR,,0.00,WeatherDisplay:10.37,2013-05-13 23:10:00,
2013-05-13 16:20:00,76.3,32.2,30.21,WSW,249,5.0,8.0,20,0.00,CLR,,0.00,WeatherDisplay:10.37,2013-05-13 23:20:00,
2013-05-13 16:30:00,76.1,32.1,30.21,SW,229,3.0,6.0,20,0.00,CLR,,0.00,WeatherDisplay:10.37,2013-05-13 23:30:00,
2013-05-13 16:35:00,75.4,31.5,30.21,SW,227,3.0,6.0,20,0.00,CLR,,0.00,WeatherDisplay:10.37,2013-05-13 23:35:00,
2013-05-13 16:40:00,75.6,31.6,30.21,SSW,196,3.0,6.0,20,0.00,CLR,,0.00,WeatherDisplay:10.37,2013-05-13 23:40:00,
2013-05-13 16:45:00,75.6,31.7,30.21,South,189,3.0,6.0,20,0.00,CLR,,0.00,WeatherDisplay:10.37,2013-05-13 23:45:00,
2013-05-13 16:50:00,75.7,31.8,30.21,South,185,2.0,5.0,20,0.00,CLR,,0.00,WeatherDisplay:10.37,2013-05-13 23:50:00,
2013-05-13 17:00:00,74.6,32.0,30.21,SW,220,3.0,6.0,21,0.00,CLR,,0.00,WeatherDisplay:10.37,2013-05-14 00:00:00,
2013-05-13 17:05:00,73.7,31.3,30.21,SW,224,5.0,8.0,21,0.00,CLR,,0.00,WeatherDisplay:10.37,2013-05-14 00:05:00,
2013-05-13 17:10:00,73.3,30.9,30.21,SW,220,3.0,8.0,21,0.00,CLR,,0.00,WeatherDisplay:10.37,2013-05-14 00:10:00,
2013-05-13 17:15:00,73.2,30.9,30.21,SW,222,5.0,11.0,21,0.00,CLR,,0.00,WeatherDisplay:10.37,2013-05-14 00:15:00,
2013-05-13 17:20:00,72.9,30.6,30.21,WSW,240,5.0,9.0,21,0.00,CLR,,0.00,WeatherDisplay:10.37,2013-05-14 00:20:00,
2013-05-13 17:30:00,72.6,31.6,30.21,SW,227,3.0,6.0,22,0.00,CLR,,0.00,WeatherDisplay:10.37,2013-05-14 00:30:00,
2013-05-13 17:40:00,72.1,31.2,30.21,SW,224,5.0,8.0,22,0.00,CLR,,0.00,WeatherDisplay:10.37,2013-05-14 00:40:00,
2013-05-13 17:50:00,71.2,30.4,30.21,SW,235,5.0,13.0,22,0.00,CLR,,0.00,WeatherDisplay:10.37,2013-05-14 00:50:00,
2013-05-13 17:55:00,70.7,30.0,30.21,WSW,239,5.0,12.0,22,0.00,CLR,,0.00,WeatherDisplay:10.37,2013-05-14 00:55:00,
2013-05-13 18:05:00,70.3,29.7,30.21,WSW,238,6.0,12.0,22,0.00,CLR,,0.00,WeatherDisplay:10.37,2013-05-14 01:05:00,
2013-05-13 18:10:00,70.0,29.4,30.21,WSW,239,6.0,13.0,22,0.00,CLR,,0.00,WeatherDisplay:10.37,2013-05-14 01:10:00,
2013-05-13 18:15:00,69.6,29.1,30.21,WSW,237,6.0,10.0,22,0.00,CLR,,0.00,WeatherDisplay:10.37,2013-05-14 01:15:00,
2013-05-13 18:20:00,69.3,28.8,30.21,WSW,250,6.0,9.0,22,0.00,CLR,,0.00,WeatherDisplay:10.37,2013-05-14 01:20:00,
2013-05-13 18:25:00,68.9,28.5,30.21,WSW,258,5.0,11.0,22,0.00,CLR,,0.00,WeatherDisplay:10.37,2013-05-14 01:25:00,
2013-05-13 18:30:00,68.7,28.3,30.21,WSW,249,5.0,8.0,22,0.00,CLR,,0.00,WeatherDisplay:10.37,2013-05-14 01:30:00,
2013-05-13 18:40:00,68.1,27.8,30.21,SW,235,3.0,6.0,22,0.00,CLR,,0.00,WeatherDisplay:10.37,2013-05-14 01:40:00,
2013-05-13 18:50:00,67.5,28.3,30.21,WSW,251,3.0,6.0,23,0.00,CLR,,0.00,WeatherDisplay:10.37,2013-05-14 01:50:00,
2013-05-13 19:00:00,66.9,27.9,30.21,WSW,243,1.0,6.0,23,0.00,CLR,,0.00,WeatherDisplay:10.37,2013-05-14 02:00:00,
2013-05-13 19:05:00,66.6,27.6,30.21,WSW,245,3.0,8.0,23,0.00,CLR,,0.00,WeatherDisplay:10.37,2013-05-14 02:05:00,
2013-05-13 19:10:00,66.2,27.3,30.21,SW,236,3.0,8.0,23,0.00,CLR,,0.00,WeatherDisplay:10.37,2013-05-14 02:10:00,
2013-05-13 19:20:00,65.5,26.7,30.21,SW,235,0.0,4.0,23,0.00,CLR,,0.00,WeatherDisplay:10.37,2013-05-14 02:20:00,
2013-05-13 19:30:00,64.4,25.8,30.21,SW,233,1.0,6.0,23,0.00,CLR,,0.00,WeatherDisplay:10.37,2013-05-14 02:30:00,
2013-05-13 19:40:00,63.6,26.1,30.21,SW,229,0.0,3.0,24,0.00,CLR,,0.00,WeatherDisplay:10.37,2013-05-14 02:40:00,
2013-05-13 19:45:00,63.3,25.8,30.21,WSW,241,0.0,5.0,24,0.00,CLR,,0.00,WeatherDisplay:10.37,2013-05-14 02:45:00,
2013-05-13 19:50:00,62.8,25.4,30.21,WSW,240,0.0,4.0,24,0.00,CLR,,0.00,WeatherDisplay:10.37,2013-05-14 02:50:00,
2013-05-13 19:55:00,62.4,26.1,30.21,SW,227,0.0,0.0,25,0.00,CLR,,0.00,WeatherDisplay:10.37,2013-05-14 02:55:00,
2013-05-13 20:05:00,61.7,26.4,30.21,North,1,0.0,0.0,26,0.00,CLR,,0.00,WeatherDisplay:10.37,2013-05-14 03:05:00,
2013-05-13 20:10:00,61.3,26.1,30.21,NNE,24,0.0,0.0,26,0.00,CLR,,0.00,WeatherDisplay:10.37,2013-05-14 03:10:00,
2013-05-13 20:15:00,61.2,26.9,30.21,NW,312,0.0,0.0,27,0.00,CLR,,0.00,WeatherDisplay:10.37,2013-05-14 03:15:00,
2013-05-13 20:20:00,61.0,26.7,30.21,West,267,0.0,0.0,27,0.00,CLR,,0.00,WeatherDisplay:10.37,2013-05-14 03:20:00,
2013-05-13 20:30:00,60.6,26.4,30.21,WSW,253,0.0,0.0,27,0.00,CLR,,0.00,WeatherDisplay:10.37,2013-05-14 03:30:00,
2013-05-13 20:35:00,60.4,26.3,30.21,WSW,257,0.0,0.0,27,0.00,CLR,,0.00,WeatherDisplay:10.37,2013-05-14 03:35:00,
2013-05-13 20:40:00,60.4,25.4,30.21,WSW,256,0.0,4.0,26,0.00,CLR,,0.00,WeatherDisplay:10.37,2013-05-14 03:40:00,
2013-05-13 20:45:00,60.3,25.2,30.21,West,259,2.0,3.0,26,0.00,CLR,,0.00,WeatherDisplay:10.37,2013-05-14 03:45:00,
2013-05-13 20:50:00,60.3,25.2,30.21,WSW,244,0.0,3.0,26,0.00,CLR,,0.00,WeatherDisplay:10.37,2013-05-14 03:50:00,
2013-05-13 21:00:00,59.9,24.9,30.21,SW,228,0.0,0.0,26,0.00,CLR,,0.00,WeatherDisplay:10.37,2013-05-14 04:00:00,
2013-05-13 21:05:00,59.9,24.9,30.21,SW,235,0.0,3.0,26,0.00,CLR,,0.00,WeatherDisplay:10.37,2013-05-14 04:05:00,
2013-05-13 21:10:00,59.9,24.9,30.21,WSW,237,0.0,0.0,26,0.00,CLR,,0.00,WeatherDisplay:10.37,2013-05-14 04:10:00,
2013-05-13 21:20:00,59.4,23.5,30.21,North,9,0.0,4.0,25,0.00,CLR,,0.00,WeatherDisplay:10.37,2013-05-14 04:20:00,
2013-05-13 21:30:00,58.8,24.0,30.21,North,4,0.0,0.0,26,0.00,CLR,,0.00,WeatherDisplay:10.37,2013-05-14 04:30:00,
2013-05-13 21:35:00,58.9,24.1,30.21,North,2,0.0,0.0,26,0.00,CLR,,0.00,WeatherDisplay:10.37,2013-05-14 04:35:00,
2013-05-13 21:40:00,58.9,24.0,30.21,North,2,0.0,0.0,26,0.00,CLR,,0.00,WeatherDisplay:10.37,2013-05-14 04:40:00,
2013-05-13 21:50:00,58.6,23.8,30.21,North,2,0.0,0.0,26,0.00,CLR,,0.00,WeatherDisplay:10.37,2013-05-14 04:50:00,
2013-05-13 21:55:00,58.6,23.8,30.21,North,356,0.0,0.0,26,0.00,CLR,,0.00,WeatherDisplay:10.37,2013-05-14 04:55:00,
2013-05-13 22:00:00,58.6,23.8,30.21,NNW,344,0.0,0.0,26,0.00,CLR,,0.00,WeatherDisplay:10.37,2013-05-14 05:00:00,
2013-05-13 22:05:00,58.6,23.8,30.21,NNW,338,0.0,0.0,26,0.00,CLR,,0.00,WeatherDisplay:10.37,2013-05-14 05:05:00,
2013-05-13 22:10:00,58.5,23.7,30.21,NNW,338,0.0,0.0,26,0.00,CLR,,0.00,WeatherDisplay:10.37,2013-05-14 05:10:00,
2013-05-13 22:20:00,58.5,23.7,30.21,NNW,338,0.0,0.0,26,0.00,CLR,,0.00,WeatherDisplay:10.37,2013-05-14 05:20:00,
2013-05-13 22:25:00,58.5,23.7,30.21,NNW,338,0.0,0.0,26,0.00,CLR,,0.00,WeatherDisplay:10.37,2013-05-14 05:25:00,
2013-05-13 22:30:00,58.5,23.7,30.21,NNW,338,0.0,0.0,26,0.00,CLR,,0.00,WeatherDisplay:10.37,2013-05-14 05:30:00,
2013-05-13 22:40:00,58.5,23.7,30.21,NNW,338,0.0,0.0,26,0.00,CLR,,0.00,WeatherDisplay:10.37,2013-05-14 05:40:00,
2013-05-13 22:45:00,58.3,22.6,30.21,NNW,338,0.0,0.0,25,0.00,CLR,,0.00,WeatherDisplay:10.37,2013-05-14 05:45:00,
2013-05-13 22:50:00,58.3,22.6,30.21,NNW,338,0.0,0.0,25,0.00,CLR,,0.00,WeatherDisplay:10.37,2013-05-14 05:50:00,
2013-05-13 23:00:00,57.7,23.0,30.21,NNW,338,0.0,0.0,26,0.00,CLR,,0.00,WeatherDisplay:10.37,2013-05-14 06:00:00,
2013-05-13 23:05:00,57.2,22.6,30.21,NNW,338,0.0,0.0,26,0.00,CLR,,0.00,WeatherDisplay:10.37,2013-05-14 06:05:00,
2013-05-13 23:10:00,57.5,22.8,30.21,NNW,338,0.0,0.0,26,0.00,CLR,,0.00,WeatherDisplay:10.37,2013-05-14 06:10:00,
2013-05-13 23:20:00,57.4,22.7,30.21,NNW,338,0.0,0.0,26,0.00,CLR,,0.00,WeatherDisplay:10.37,2013-05-14 06:20:00,
2013-05-13 23:30:00,57.2,22.6,30.21,NNW,338,0.0,0.0,26,0.00,CLR,,0.00,WeatherDisplay:10.37,2013-05-14 06:30:00,
2013-05-13 23:40:00,57.6,22.9,30.21,NNW,338,0.0,0.0,26,0.00,CLR,,0.00,WeatherDisplay:10.37,2013-05-14 06:40:00,
2013-05-13 23:45:00,57.6,22.9,30.21,NNW,338,0.0,0.0,26,0.00,CLR,,0.00,WeatherDisplay:10.37,2013-05-14 06:45:00,
2013-05-13 23:50:00,57.6,23.0,30.21,NNW,338,0.0,0.0,26,0.00,CLR,,0.00,WeatherDisplay:10.37,2013-05-14 06:50:00,